Regional Weather Roundup
Issued by NWS Upton, NY

Current Version | Previous Version | Text Only | Print | Product List | Glossary On
Versions: 1 2 3 4 5 6 7 8 9 10 11 12 13 14 15 16 17 18 19 20 21 22 23 24 25 26 27 28 29 30 31 32 33 34 35 36 37 38 39 40 41 42 43 44 45 46 47 48 49 50
835 ASUS41 KOKX 231708 RWROKX REGIONAL WEATHER ROUNDUP NATIONAL WEATHER SERVICE NEW YORK NY 100 PM EDT WED AUG 23 2017 NOTE: "FAIR" INDICATES FEW OR NO CLOUDS BELOW 12,000 FEET WITH NO SIGNIFICANT WEATHER AND/OR OBSTRUCTIONS TO VISIBILITY. NYZ071-072-176-178-NJZ106-104-231800- NEW YORK CITY METRO AREA CITY SKY/WX TMP DP RH WIND PRES REMARKS Central Park MOSUNNY 79 53 40 MISG 29.87S Bronx Bot Gard N/A 79 48 34 W15 29.87R LaGuardia APRT PTSUNNY 79 55 43 NW13G20 29.83S Kennedy INTL PTSUNNY 82 56 40 NW13 29.84S Breezy Point N/A 77 N/A N/A W8 N/A Newark/Liberty PTSUNNY 80 55 42 W8 29.84S Teterboro MOSUNNY 80 54 40 NW12 29.83F $$ NYZ177-179-078>081-231800- LONG ISLAND NEW YORK CITY SKY/WX TMP DP RH WIND PRES REMARKS Jones Beach N/A 77 N/A N/A NW9 N/A Matinecock PT N/A 75 N/A N/A W10 N/A Farmingdale MOSUNNY 80 53 39 NW7 29.83S MacArthur/ISP PTSUNNY 82 63 52 NW8 29.81F Shirley MOSUNNY 83 67 58 N7 29.82S Mt Sinai Harb N/A 81 N/A N/A NW6 N/A Westhampton NOT AVBL East Hampton FAIR 79 69 71 NW8 29.80S Montauk N/A 79 68 69 W8 29.81F $$ NYZ052-065-067-231800- HUDSON VALLEY CITY SKY/WX TMP DP RH WIND PRES REMARKS White Plains MOSUNNY 77 52 41 NW12 29.84S Larchmont Harb N/A 75 N/A N/A NW13 N/A Croton On Huds N/A 77 N/A N/A NW13 N/A Newburgh MOSUNNY 75 57 53 N12 29.87S Montgomery MOSUNNY 77 54 44 NW12 29.85S Poughkeepsie MOSUNNY 77 52 41 W9G17 29.83S Albany PTSUNNY 76 53 44 W14G22 29.83S $$ NJZ001-105-106-008-010-013-015-019>022-104-231800- NEW JERSEY CITY SKY/WX TMP DP RH WIND PRES REMARKS Newark/Liberty PTSUNNY 80 55 42 W8 29.84S Teterboro MOSUNNY 80 54 40 NW12 29.83F Caldwell MOSUNNY 77 53 43 N8 29.86F Somerville MOSUNNY 80 53 39 VRB6 29.85S Linden FAIR 79 56 44 NW7 29.85F Perth Amboy N/A 75 N/A N/A W9 N/A Sussex MOSUNNY 75 53 46 NW8G21 29.87F Andover N/A 76 53 44 N8 29.88F Trenton MOSUNNY 78 55 44 W10 29.86S Millville CLOUDY 83 71 67 N9 29.86R Atlantic City CLOUDY 82 70 66 N8 29.86R Wrightstown PTSUNNY 79 63 58 W7 29.83S Toms River PTSUNNY 80 64 58 VRB6 29.86S Belmar MOSUNNY 81 57 43 W13 29.86S $$ PAZ047>061-062-071-231800- EASTERN PENNSYLVANIA CITY SKY/WX TMP DP RH WIND PRES REMARKS Philadelphia PTSUNNY 81 54 39 W10 29.87S Allentown MOSUNNY 78 52 40 W8 29.88F Scranton PTSUNNY 75 56 51 NW7 29.90S $$ CTZ002-004>006-009-010-012-RIZ004-006-007-MAZ004-011-015-231800- SOUTHERN NEW ENGLAND IN CT CITY SKY/WX TMP DP RH WIND PRES REMARKS Bradley INTL PTSUNNY 78 51 38 VRB3 29.82S Hartford SUNNY 81 54 39 NW12G17 29.81F Danbury MOSUNNY 77 58 51 NW8 29.85F Wtrbury/Oxford SUNNY 75 54 47 NW9 29.85F Norwalk Harbor N/A 77 N/A N/A W10G16 N/A Bridgeport SUNNY 81 58 45 N9 29.81F Meriden SUNNY 79 52 38 W8 29.81F New Haven MOSUNNY 80 57 45 VRB6 29.81F Chester FAIR 79 57 47 VRB6 29.82S Groton CLOUDY 83 65 54 NW10 29.78F Wilimantic SUNNY 78 52 40 W12 29.81F IN RI CITY SKY/WX TMP DP RH WIND PRES REMARKS Providence PTSUNNY 83 60 45 NW10G17 29.79F Block Island CLOUDY 77 71 82 W12 29.80F Westerly CLOUDY 85 66 53 VRB3 29.80S IN MA CITY SKY/WX TMP DP RH WIND PRES REMARKS Boston MOSUNNY 82 51 34 W15G25 29.76S Worcester SUNNY 74 50 42 W10G24 29.82S Westfield SUNNY 77 51 40 NW15 29.81F Provincetown CLOUDY 77 71 82 SW10 29.78R Nantucket CLOUDY 73 71 93 SW12 29.79F $$ ANZ330-335-338-340-345-350-353-355-231800- COASTAL MARINE OBSERVATIONS STATION/POSITION TIME SKY/WX TEMP WIND PRES VSBY WAVE AIR SEA DIR/SP/G HT/PER (UTC) (F) (DEG/KT/KT) (MB) (MI) (FT/S) NY HARB ENTRANCE 1550 74 75 310/ 12/ 14 1009.8 3/ 7 GREAT SOUTH BAY 1615 78 79 320/ 8/ 12 N/A 23 SSW MONTAUK P 1550 72 72 1009.7 5/ 6 15 E BARNEGAT LI 1600 77 N/A 4/ 6 HUDSON CANYON 1550 77 77 290/ 8/ 10 1009.5 5/ 6 KINGS POINT 1630 76 75 360/ 10/ 12 1010.1 EXECUTION ROCKS NOT AVBL WESTERN LI SOUND NOT AVBL CENTRAL LI SOUND NOT AVBL EASTERN LI SOUND NOT AVBL ROBBINS REEF 1630 320/ 10/ 12 1011.1 $$ >>>>>>>>>>>>>>>>>>>>>>>>>>>> KEY <<<<<<<<<<<<<<<<<<<<<<<<<<< > < > SKY/WX - Sky Condition/Present Weather < > TMP - Temperature in Fahrenheit < > DP - Dew Point in Fahrenheit < > RH - Relative Humidity in Percent < > WIND - Direction (from) and Speed in MPH < > PRES - Mean Sea Level Pressure (inches of Hg) < > WCI - Wind Chill Index < > VSB - VISIBILITY IN MILES < > HX - HEAT INDEX < > TC - TEMPERATURE IN CELSIUS < > VRB - VARIABLE WIND DIRECTION < > < >>>>>>>>>>>>>>>>>>>>>>>>>>>> KEY <<<<<<<<<<<<<<<<<<<<<<<<<<<

USA.gov is the U.S. government's official web portal to all federal, state and local government web resources and services.